Regional Weather Roundup
Issued by NWS

Home | Current Version | Previous Version | Graphics & Text | Print | Product List | Glossary On
Versions: 1 2 3 4 5 6 7 8 9 10 11 12 13 14 15 16 17 18 19 20 21 22 23 24 25 26 27 28 29 30 31 32 33 34 35 36 37 38 39 40 41 42 43 44 45 46 47 48 49 50
000
ASUS43 KIND 212209
RWRIN

WEATHER ROUNDUP FOR INDIANA
NATIONAL WEATHER SERVICE INDIANAPOLIS IN
600 PM EDT TUE OCT 21 2014

NOTE: "FAIR" INDICATES FEW OR NO CLOUDS BELOW 12,000 FEET WITH NO
SIGNIFICANT WEATHER AND/OR OBSTRUCTIONS TO VISIBILITY.

* - STATION DOES NOT REPORT WEATHER SUCH AS PRECIPITATION OR FOG.

+ - STATION NOT QUALITY CONTROLLED BY THE NATIONAL WEATHER SERVICE.
    USE DATA WITH CAUTION...ESPECIALLY DEWPOINT AND RELATIVE
    HUMIDITY OBSERVATIONS.

INZ001>003-010>013-019-020-212300-
NORTHWEST INDIANA

CITY           SKY/WX    TMP DP  RH WIND       PRES   REMARKS
GARY /AIRPORT/ CLOUDY    52  41  66 N13G30    30.19R
KNOX *+        CLOUDY    49  39  67 N13       30.16S
LA PORTE +     CLOUDY    50  41  71 N9G16     30.17S
MICHIGAN CITY+ CLOUDY    48  36  61 N8        30.18R
MONTICELLO +   CLOUDY    53  41  64 N8        30.14S
RENSSELAER +   CLOUDY    52  43  71 N9G17     30.17R
VALPARAISO     CLOUDY    50  40  68 N7        30.17S

$$

LMZ046-743>745-212300-
SOUTHERN LAKE MICHIGAN

STATION/POSITION TIME  TEMP WIND        PRES
                       AIR  DIR/SP/G
                 (UTC) (F)  (DEG/KT/KT) (MB)
MICHIGAN CITY    2200   50  360/ 17/ 20   N/A

$$

INZ004-005-014>016-021>024-212300-
NORTH CENTRAL INDIANA

CITY           SKY/WX    TMP DP  RH WIND       PRES   REMARKS
ELKHART        CLOUDY    50  37  62 N7        30.16R
GOSHEN         CLOUDY    49  39  68 N12       30.15R
LOGANSPORT +   CLOUDY    54  41  62 N13G18    30.14R
PERU/GRISSOM   CLOUDY    53  45  73 N13       30.13R
ROCHESTER +    CLOUDY    54  43  66 N7G17     30.15R
SOUTH BEND     CLOUDY    50  37  61 N9        30.17S
WARSAW +       CLOUDY    50  41  71 N6        30.14R

$$

INZ006>009-017-018-025>027-212300-
NORTHEAST INDIANA

CITY           SKY/WX    TMP DP  RH WIND       PRES   REMARKS
ANGOLA *+      CLOUDY    46  28  49 N5        30.15R
AUBURN +       CLOUDY    48  36  61 N9        30.15R
FORT WAYNE     CLOUDY    50  40  68 N12       30.14R
HUNTINGTON +   CLOUDY    50  40  68 N7        30.13R

$$

INZ028-029-035-036-043>045-051>053-212300-
WEST CENTRAL INDIANA

CITY           SKY/WX    TMP DP  RH WIND       PRES   REMARKS
GREENCASTLE +  CLOUDY    54  41  62 NW9       30.14R
LAFAYETTE      MOCLDY    53  43  68 N14       30.15R
TERRE HAUTE    CLOUDY    57  39  51 N9        30.14R

$$

INZ030>032-037>040-046>048-054>057-064-065-212300-
CENTRAL INDIANA

CITY           SKY/WX    TMP DP  RH WIND       PRES   REMARKS
CP ATTERBURY + CLOUDY    54  41  62 N9        30.12R
FRANKFORT +    CLOUDY    55  43  65 NW10      30.15R
INDIANAPOLIS   MOCLDY    54  42  64 N12       30.11R
-EAGLE CREEK   CLOUDY    54  42  64 N12       30.11R
KOKOMO *+      CLOUDY    54  39  58 N13       30.13R
MARION +       CLOUDY    52  41  66 N7        30.13R
MT COMFORT *+  MOCLDY    54  37  54 N10       30.12R
SHELBYVILLE    CLOUDY    56  42  59 N10       30.10R
ZIONSVILLE +   CLOUDY    54  41  62 N10       30.13R

$$

INZ033-034-041-042-049-050-058-059-212300-
EAST CENTRAL INDIANA

CITY           SKY/WX    TMP DP  RH WIND       PRES   REMARKS
MUNCIE         CLOUDY    53  41  63 N13       30.12R

$$

INZ060-061-067>069-081>083-085>088-212300-
SOUTHWEST INDIANA

CITY           SKY/WX    TMP DP  RH WIND       PRES   REMARKS
EVANSVILLE     MOSUNNY   63  42  46 N14       30.11R
HUNTINGBURG *+ MOSUNNY   59  41  51 NE15      30.11S
WASHINGTON +   PTSUNNY   58  40  51 N10       30.12R

$$

INZ062-063-066-070>080-084-089>092-212300-
SOUTH CENTRAL AND SOUTHEAST INDIANA

CITY           SKY/WX    TMP DP  RH WIND       PRES   REMARKS
BLOOMINGTON    MOSUNNY   57  40  52 N6        30.12R

$$




USA.gov is the U.S. government's official web portal to all federal, state and local government web resources and services.